• Em Portugal
  • Lista de países
  • Para 7 dias
  • Temperatura da água
  • Mapas de satélite
  • Mapa do tempo
  • Widgets de tempo
  • user-avatar
    Iniciar Sessão

    Previsão horária em Chwaliszow

    Hoje, 23 Abril, Segunda-feira

    Tempo Temperatura Precipitação Vento Pressão Humidade
    00:00 +14°C° 0,1 mm 2 m/s 731 mmHg 73%
    01:00 +14°C° 0 mm 2 m/s 730 mmHg 70%
    02:00 +14°C° 0,2 mm 2 m/s 730 mmHg 72%
    03:00 +13°C° 0,2 mm 2 m/s 730 mmHg 74%
    04:00 +13°C° 0,2 mm 2 m/s 730 mmHg 76%
    05:00 +14°C° 0 mm 2 m/s 730 mmHg 76%
    06:00 +16°C° 0 mm 3 m/s 730 mmHg 75%
    07:00 +16°C° 0 mm 2 m/s 730 mmHg 73%
    08:00 +18°C° 0 mm 2 m/s 730 mmHg 68%
    09:00 +20°C° 0 mm 2 m/s 730 mmHg 62%
    10:00 +22°C° 0 mm 3 m/s 730 mmHg 56%
    11:00 +22°C° 0,2 mm 3 m/s 730 mmHg 54%
    12:00 +23°C° 0,2 mm 4 m/s 730 mmHg 52%
    13:00 +24°C° 0 mm 3 m/s 730 mmHg 53%
    14:00 +21°C° 0,6 mm 3 m/s 730 mmHg 60%
    15:00 +20°C° 0,6 mm 3 m/s 730 mmHg 67%
    16:00 +19°C° 0,6 mm 4 m/s 730 mmHg 75%
    17:00 +18°C° 0,2 mm 3 m/s 730 mmHg 79%
    18:00 +17°C° 0,2 mm 3 m/s 730 mmHg 83%
    19:00 +16°C° 0,2 mm 3 m/s 730 mmHg 87%
    20:00 +14°C° 0,1 mm 3 m/s 730 mmHg 88%
    21:00 +13°C° 0,1 mm 3 m/s 730 mmHg 90%
    22:00 +12°C° 0,1 mm 3 m/s 730 mmHg 92%
    23:00 +13°C° 0 mm 2 m/s 731 mmHg 92%

    Amanhã, 24 Abril, Terça-feira

    Tempo Temperatura Precipitação Vento Pressão Humidade
    00:00 +12°C° 0 mm 2 m/s 731 mmHg 93%
    01:00 +12°C° 0 mm 2 m/s 732 mmHg 93%
    02:00 +10°C° 0 mm 2 m/s 732 mmHg 93%
    03:00 +10°C° 0 mm 2 m/s 732 mmHg 93%
    04:00 +9°C° 0 mm 2 m/s 732 mmHg 92%
    05:00 +10°C° 0 mm 2 m/s 732 mmHg 88%
    06:00 +12°C° 0 mm 2 m/s 732 mmHg 83%
    07:00 +12°C° 0 mm 3 m/s 732 mmHg 79%
    08:00 +14°C° 0 mm 3 m/s 732 mmHg 72%
    09:00 +15°C° 0 mm 4 m/s 733 mmHg 66%
    10:00 +17°C° 0 mm 4 m/s 733 mmHg 59%
    11:00 +18°C° 0 mm 4 m/s 732 mmHg 56%
    12:00 +19°C° 0 mm 4 m/s 732 mmHg 54%
    13:00 +20°C° 0 mm 5 m/s 732 mmHg 52%
    14:00 +20°C° 0 mm 5 m/s 732 mmHg 51%
    15:00 +20°C° 0 mm 5 m/s 731 mmHg 51%
    16:00 +20°C° 0 mm 5 m/s 731 mmHg 51%
    17:00 +18°C° 0 mm 4 m/s 731 mmHg 57%
    18:00 +17°C° 0 mm 3 m/s 731 mmHg 63%
    19:00 +15°C° 0 mm 2 m/s 731 mmHg 69%
    20:00 +14°C° 0 mm 2 m/s 731 mmHg 73%
    21:00 +13°C° 0 mm 2 m/s 731 mmHg 77%
    22:00 +12°C° 0 mm 1 m/s 732 mmHg 81%
    23:00 +12°C° 0 mm 1 m/s 731 mmHg 82%

    Depois de amanhã, 25 Abril, Quarta-feira

    Tempo Temperatura Precipitação Vento Pressão Humidade
    00:00 +11°C° 0 mm 1 m/s 731 mmHg 82%
    01:00 +11°C° 0 mm 1 m/s 731 mmHg 83%
    02:00 +11°C° 0 mm 1 m/s 731 mmHg 82%
    03:00 +11°C° 0 mm 1 m/s 731 mmHg 82%
    04:00 +10°C° 0 mm 2 m/s 731 mmHg 82%
    05:00 +12°C° 0 mm 2 m/s 730 mmHg 80%
    06:00 +12°C° 0 mm 3 m/s 730 mmHg 77%
    07:00 +13°C° 0 mm 4 m/s 730 mmHg 75%
    08:00 +15°C° 0 mm 5 m/s 730 mmHg 69%
    09:00 +16°C° 0 mm 5 m/s 730 mmHg 62%
    10:00 +19°C° 0 mm 6 m/s 729 mmHg 56%
    11:00 +20°C° 0 mm 6 m/s 729 mmHg 54%
    12:00 +20°C° 0 mm 6 m/s 729 mmHg 53%
    13:00 +21°C° 0 mm 7 m/s 728 mmHg 51%
    14:00 +21°C° 0,1 mm 6 m/s 728 mmHg 52%
    15:00 +21°C° 0,1 mm 6 m/s 728 mmHg 53%
    16:00 +21°C° 0,1 mm 6 m/s 727 mmHg 54%
    17:00 +19°C° 0,3 mm 6 m/s 727 mmHg 61%
    18:00 +17°C° 0,3 mm 5 m/s 727 mmHg 69%
    19:00 +15°C° 0,3 mm 4 m/s 727 mmHg 76%
    20:00 +14°C° 0,1 mm 4 m/s 727 mmHg 81%
    21:00 +13°C° 0,1 mm 3 m/s 728 mmHg 85%
    22:00 +12°C° 0,1 mm 3 m/s 728 mmHg 89%
    23:00 +12°C° 0 mm 3 m/s 728 mmHg 90%

    26 Abril, Quinta-feira

    Tempo Temperatura Precipitação Vento Pressão Humidade
    00:00 +11°C° 0 mm 3 m/s 729 mmHg 91%
    01:00 +10°C° 0 mm 3 m/s 729 mmHg 92%
    02:00 +10°C° 0 mm 3 m/s 729 mmHg 92%
    03:00 +9°C° 0 mm 3 m/s 729 mmHg 92%
    04:00 +8°C° 0 mm 4 m/s 729 mmHg 92%
    05:00 +8°C° 0 mm 4 m/s 730 mmHg 88%
    06:00 +9°C° 0 mm 5 m/s 730 mmHg 84%
    07:00 +10°C° 0 mm 5 m/s 731 mmHg 80%
    08:00 +12°C° 0,1 mm 5 m/s 731 mmHg 72%
    09:00 +13°C° 0,1 mm 5 m/s 731 mmHg 65%
    10:00 +14°C° 0,1 mm 6 m/s 731 mmHg 58%
    11:00 +14°C° 0 mm 6 m/s 731 mmHg 54%
    12:00 +15°C° 0 mm 6 m/s 731 mmHg 50%
    13:00 +15°C° 0 mm 6 m/s 731 mmHg 46%
    14:00 +15°C° 0 mm 6 m/s 731 mmHg 46%
    15:00 +14°C° 0 mm 6 m/s 731 mmHg 47%
    16:00 +14°C° 0 mm 6 m/s 731 mmHg 48%
    17:00 +12°C° 0 mm 5 m/s 731 mmHg 52%
    18:00 +11°C° 0 mm 4 m/s 732 mmHg 57%
    19:00 +9°C° 0 mm 3 m/s 732 mmHg 61%
    20:00 +8°C° 0 mm 3 m/s 732 mmHg 65%
    21:00 +7°C° 0 mm 3 m/s 733 mmHg 68%
    22:00 +6°C° 0 mm 2 m/s 733 mmHg 72%
    23:00 +6°C° 0 mm 2 m/s 733 mmHg 72%

    27 Abril, Sexta-feira

    Tempo Temperatura Precipitação Vento Pressão Humidade
    00:00 +5°C° 0 mm 2 m/s 733 mmHg 72%
    01:00 +5°C° 0 mm 2 m/s 733 mmHg 73%
    02:00 +5°C° 0 mm 2 m/s 733 mmHg 73%
    03:00 +5°C° 0 mm 2 m/s 734 mmHg 74%
    04:00 +4°C° 0 mm 2 m/s 734 mmHg 74%
    05:00 +6°C° 0 mm 2 m/s 734 mmHg 71%
    06:00 +7°C° 0 mm 2 m/s 734 mmHg 68%
    07:00 +9°C° 0 mm 1 m/s 734 mmHg 65%
    08:00 +10°C° 0 mm 2 m/s 734 mmHg 59%
    09:00 +13°C° 0 mm 2 m/s 734 mmHg 53%
    10:00 +14°C° 0 mm 2 m/s 734 mmHg 47%
    11:00 +15°C° 0 mm 2 m/s 734 mmHg 45%
    12:00 +15°C° 0 mm 2 m/s 734 mmHg 44%
    13:00 +16°C° 0 mm 1 m/s 733 mmHg 42%
    14:00 +16°C° 0 mm 2 m/s 733 mmHg 42%
    15:00 +16°C° 0 mm 2 m/s 733 mmHg 42%
    16:00 +17°C° 0 mm 2 m/s 732 mmHg 42%
    17:00 +15°C° 0 mm 2 m/s 732 mmHg 51%
    18:00 +13°C° 0 mm 2 m/s 732 mmHg 59%
    19:00 +12°C° 0 mm 2 m/s 731 mmHg 67%
    20:00 +10°C° 0 mm 2 m/s 731 mmHg 68%
    21:00 +9°C° 0 mm 2 m/s 731 mmHg 68%
    22:00 +8°C° 0 mm 2 m/s 731 mmHg 69%
    23:00 +8°C° 0 mm 2 m/s 731 mmHg 69%

    28 Abril, Sábado

    Tempo Temperatura Precipitação Vento Pressão Humidade
    00:00 +8°C° 0 mm 2 m/s 731 mmHg 69%
    01:00 +8°C° 0 mm 2 m/s 730 mmHg 68%
    02:00 +8°C° 0 mm 2 m/s 730 mmHg 69%
    03:00 +7°C° 0 mm 2 m/s 729 mmHg 70%
    04:00 +7°C° 0 mm 2 m/s 729 mmHg 71%
    05:00 +9°C° 0 mm 3 m/s 729 mmHg 71%
    06:00 +10°C° 0 mm 3 m/s 729 mmHg 70%
    07:00 +12°C° 0 mm 4 m/s 729 mmHg 69%
    08:00 +14°C° 0 mm 4 m/s 729 mmHg 66%
    09:00 +17°C° 0 mm 4 m/s 729 mmHg 63%
    10:00 +19°C° 0 mm 4 m/s 729 mmHg 60%
    11:00 +20°C° 0 mm 4 m/s 729 mmHg 58%
    12:00 +21°C° 0 mm 3 m/s 729 mmHg 56%
    13:00 +22°C° 0 mm 3 m/s 729 mmHg 54%
    14:00 +22°C° 0 mm 3 m/s 729 mmHg 54%
    15:00 +23°C° 0 mm 2 m/s 728 mmHg 55%
    16:00 +23°C° 0 mm 2 m/s 728 mmHg 55%
    17:00 +20°C° 0 mm 2 m/s 728 mmHg 62%
    18:00 +20°C° 0 mm 1 m/s 728 mmHg 68%
    19:00 +18°C° 0 mm 1 m/s 728 mmHg 75%
    20:00 +18°C° 0 mm 1 m/s 728 mmHg 79%
    21:00 +16°C° 0 mm 1 m/s 728 mmHg 82%
    22:00 +15°C° 0 mm 1 m/s 728 mmHg 85%
    23:00 +14°C° 0 mm 1 m/s 728 mmHg 86%
    Mostrar mais